| time (UTC) | temp C | wind direction | speed KPH | gust KPH | rain 1hr cm | rain 24hr cm | rain mn cm | humidity % | barometer mb |
| 20260504150929 | 16 | 171 | 3.2 | 8.0 | 0.00 | 0.00 | 0.00 | 53 | 1008.2 |
| 20260504150426 | 16 | 171 | 1.6 | 8.0 | 0.00 | 0.00 | 0.00 | 55 | 1008.2 |
| 20260504140852 | 13 | 186 | 3.2 | 4.8 | 0.00 | 0.00 | 0.00 | 59 | 1008.8 |
| 20260504140348 | 13 | 167 | 3.2 | 4.8 | 0.00 | 0.00 | 0.00 | 59 | 1008.8 |
| 20260504130817 | 11 | 203 | 3.2 | 9.7 | 0.00 | 0.00 | 0.00 | 60 | 1009.0 |
| 20260504130313 | 11 | 168 | 9.7 | 12.9 | 0.00 | 0.00 | 0.00 | 59 | 1009.2 |
| 20260504120237 | 10 | 191 | 0.0 | 8.0 | 0.00 | 0.00 | 0.00 | 63 | 1009.3 |
| 20260504110704 | 8 | 190 | 3.2 | 4.8 | 0.00 | 0.00 | 0.00 | 66 | 1008.9 |
| 20260504110201 | 8 | 190 | 3.2 | 3.2 | 0.00 | 0.00 | 0.00 | 67 | 1008.9 |
| 20260504100124 | 7 | 237 | 3.2 | 4.8 | 0.00 | 0.00 | 0.00 | 68 | 1008.9 |
| 20260504081518 | 8 | 165 | 0.0 | 8.0 | 0.00 | 0.00 | 0.00 | 66 | 1009.8 |
| 20260504081013 | 8 | 225 | 1.6 | 3.2 | 0.00 | 0.00 | 0.00 | 66 | 1010.0 |
| 20260504080509 | 8 | 179 | 0.0 | 4.8 | 0.00 | 0.00 | 0.00 | 66 | 1010.0 |
| 20260504050322 | 8 | 187 | 0.0 | 0.0 | 0.00 | 0.00 | 0.00 | 62 | 1011.6 |
| 20260504045820 | 8 | 179 | 0.0 | 0.0 | 0.00 | 0.00 | 0.00 | 62 | 1011.8 |
| 20260504045319 | 8 | 163 | 1.6 | 3.2 | 0.00 | 0.00 | 0.00 | 62 | 1011.7 |
| 20260504044817 | 8 | 174 | 0.0 | 0.0 | 0.00 | 0.00 | 0.00 | 61 | 1011.6 |
| 20260504044314 | 8 | 179 | 0.0 | 3.2 | 0.00 | 0.00 | 0.00 | 62 | 1011.7 |
| 20260504043812 | 8 | 188 | 1.6 | 3.2 | 0.00 | 0.00 | 0.00 | 59 | 1011.7 |
| 20260504043308 | 8 | 198 | 0.0 | 3.2 | 0.00 | 0.00 | 0.00 | 58 | 1011.9 |
| 20260504042806 | 8 | 241 | 3.2 | 4.8 | 0.00 | 0.00 | 0.00 | 59 | 1011.8 |
| 20260504042304 | 8 | 194 | 1.6 | 4.8 | 0.00 | 0.00 | 0.00 | 58 | 1011.8 |
| 20260504041759 | 8 | 197 | 3.2 | 4.8 | 0.00 | 0.00 | 0.00 | 57 | 1011.7 |
| 20260504041255 | 9 | 208 | 4.8 | 9.7 | 0.00 | 0.00 | 0.00 | 57 | 1011.9 |
| 20260504040751 | 8 | 210 | 3.2 | 12.9 | 0.00 | 0.00 | 0.00 | 57 | 1011.8 |
| 20260504040249 | 8 | 216 | 3.2 | 4.8 | 0.00 | 0.00 | 0.00 | 60 | 1011.8 |
| 20260504035744 | 8 | 201 | 3.2 | 8.0 | 0.00 | 0.00 | 0.00 | 60 | 1011.5 |
| 20260504035242 | 8 | 193 | 1.6 | 4.8 | 0.00 | 0.00 | 0.00 | 60 | 1011.5 |
| 20260504034739 | 8 | 199 | 1.6 | 4.8 | 0.00 | 0.00 | 0.00 | 59 | 1011.6 |
| 20260504034236 | 8 | 185 | 1.6 | 3.2 | 0.00 | 0.00 | 0.00 | 61 | 1011.7 |
| 20260504033734 | 8 | 190 | 0.0 | 3.2 | 0.00 | 0.00 | 0.00 | 60 | 1011.8 |
| 20260504033231 | 8 | 197 | 1.6 | 4.8 | 0.00 | 0.00 | 0.00 | 59 | 1011.7 |
| 20260504032728 | 8 | 193 | 1.6 | 3.2 | 0.00 | 0.00 | 0.00 | 59 | 1011.7 |
| 20260504032225 | 9 | 193 | 1.6 | 3.2 | 0.00 | 0.00 | 0.00 | 59 | 1011.9 |
| 20260504031721 | 9 | 196 | 3.2 | 3.2 | 0.00 | 0.00 | 0.00 | 58 | 1011.8 |
| 20260504031219 | 9 | 185 | 0.0 | 3.2 | 0.00 | 0.00 | 0.00 | 59 | 1011.8 |
| 20260504030715 | 9 | 198 | 1.6 | 4.8 | 0.00 | 0.00 | 0.00 | 58 | 1011.9 |
| 20260504030212 | 9 | 188 | 3.2 | 4.8 | 0.00 | 0.00 | 0.00 | 59 | 1011.8 |
| 20260504025709 | 9 | 194 | 1.6 | 4.8 | 0.00 | 0.00 | 0.00 | 59 | 1011.9 |
| 20260504025205 | 9 | 204 | 3.2 | 4.8 | 0.00 | 0.00 | 0.00 | 57 | 1011.8 |
| 20260504024703 | 9 | 189 | 1.6 | 3.2 | 0.00 | 0.00 | 0.00 | 58 | 1012.0 |
| 20260504024159 | 9 | 187 | 3.2 | 3.2 | 0.00 | 0.00 | 0.00 | 58 | 1012.1 |
| 20260504023656 | 9 | 194 | 3.2 | 4.8 | 0.00 | 0.00 | 0.00 | 59 | 1012.0 |
| 20260504023152 | 10 | 200 | 3.2 | 3.2 | 0.00 | 0.00 | 0.00 | 58 | 1011.9 |
| 20260504022648 | 10 | 193 | 0.0 | 3.2 | 0.00 | 0.00 | 0.00 | 57 | 1011.9 |
| 20260504022144 | 10 | 192 | 0.0 | 3.2 | 0.00 | 0.00 | 0.00 | 57 | 1012.0 |
| 20260504021642 | 10 | 210 | 3.2 | 4.8 | 0.00 | 0.00 | 0.00 | 57 | 1011.9 |
| 20260504021138 | 10 | 176 | 1.6 | 4.8 | 0.00 | 0.00 | 0.00 | 56 | 1011.9 |
| 20260504020636 | 10 | 192 | 1.6 | 4.8 | 0.00 | 0.00 | 0.00 | 55 | 1012.0 |
| 20260504020131 | 10 | 208 | 4.8 | 8.0 | 0.00 | 0.00 | 0.00 | 55 | 1011.9 |
| 20260504015628 | 10 | 198 | 3.2 | 3.2 | 0.00 | 0.00 | 0.00 | 55 | 1011.9 |
| 20260504015125 | 10 | 233 | 1.6 | 4.8 | 0.00 | 0.00 | 0.00 | 56 | 1011.9 |
| 20260504014621 | 10 | 185 | 1.6 | 3.2 | 0.00 | 0.00 | 0.00 | 55 | 1011.7 |
| 20260504014118 | 10 | 193 | 0.0 | 4.8 | 0.00 | 0.00 | 0.00 | 54 | 1011.7 |
| 20260504013615 | 10 | 197 | 1.6 | 3.2 | 0.00 | 0.00 | 0.00 | 52 | 1011.8 |
| 20260504013112 | 10 | 198 | 3.2 | 4.8 | 0.00 | 0.00 | 0.00 | 52 | 1011.8 |
| 20260504012610 | 11 | 208 | 4.8 | 4.8 | 0.00 | 0.00 | 0.00 | 52 | 1011.6 |
| 20260504012107 | 11 | 203 | 3.2 | 4.8 | 0.00 | 0.00 | 0.00 | 52 | 1011.7 |
| 20260504011604 | 11 | 190 | 1.6 | 8.0 | 0.00 | 0.00 | 0.00 | 52 | 1011.7 |
| 20260504011100 | 11 | 191 | 0.0 | 3.2 | 0.00 | 0.00 | 0.00 | 52 | 1011.7 |
| 20260504010556 | 11 | 186 | 1.6 | 4.8 | 0.00 | 0.00 | 0.00 | 51 | 1011.6 |
| 20260504010052 | 11 | 181 | 3.2 | 4.8 | 0.00 | 0.00 | 0.00 | 52 | 1011.8 |
| 20260504005549 | 11 | 198 | 4.8 | 8.0 | 0.00 | 0.00 | 0.00 | 50 | 1011.8 |
| 20260504005046 | 11 | 194 | 0.0 | 8.0 | 0.00 | 0.00 | 0.00 | 51 | 1011.7 |
| 20260504004544 | 11 | 182 | 0.0 | 8.0 | 0.00 | 0.00 | 0.00 | 51 | 1011.7 |
| 20260504004041 | 11 | 188 | 1.6 | 8.0 | 0.00 | 0.00 | 0.00 | 50 | 1011.7 |
| 20260504003537 | 11 | 198 | 3.2 | 4.8 | 0.00 | 0.00 | 0.00 | 51 | 1011.5 |
| 20260504003034 | 11 | 198 | 3.2 | 4.8 | 0.00 | 0.00 | 0.00 | 50 | 1011.6 |
| 20260504002531 | 11 | 192 | 1.6 | 4.8 | 0.00 | 0.00 | 0.00 | 48 | 1011.6 |
| 20260504002028 | 12 | 203 | 3.2 | 4.8 | 0.00 | 0.00 | 0.00 | 50 | 1011.7 |
| 20260504001526 | 12 | 175 | 0.0 | 4.8 | 0.00 | 0.00 | 0.00 | 48 | 1011.8 |
| 20260504001022 | 12 | 202 | 4.8 | 8.0 | 0.00 | 0.00 | 0.00 | 49 | 1011.6 |
| 20260504000519 | 12 | 186 | 1.6 | 4.8 | 0.00 | 0.00 | 0.00 | 49 | 1011.7 |
| 20260504000017 | 12 | 202 | 3.2 | 8.0 | 0.00 | 0.00 | 0.00 | 47 | 1011.6 |
| 20260503235515 | 12 | 184 | 1.6 | 12.9 | 0.00 | 0.00 | 0.00 | 46 | 1011.7 |
| 20260503235011 | 12 | 201 | 6.4 | 12.9 | 0.00 | 0.00 | 0.00 | 47 | 1011.6 |
| 20260503234509 | 12 | 214 | 4.8 | 8.0 | 0.00 | 0.00 | 0.00 | 46 | 1011.8 |
| 20260503234007 | 12 | 205 | 6.4 | 8.0 | 0.00 | 0.00 | 0.00 | 49 | 1011.7 |
| 20260503233503 | 12 | 216 | 3.2 | 8.0 | 0.00 | 0.00 | 0.00 | 46 | 1011.7 |
| 20260503232959 | 12 | 274 | 3.2 | 8.0 | 0.00 | 0.00 | 0.00 | 45 | 1011.6 |
| 20260503232456 | 12 | 198 | 6.4 | 9.7 | 0.00 | 0.00 | 0.00 | 47 | 1011.6 |
| 20260503231954 | 12 | 195 | 8.0 | 9.7 | 0.00 | 0.00 | 0.00 | 45 | 1011.6 |
| 20260503231451 | 12 | 197 | 1.6 | 4.8 | 0.00 | 0.00 | 0.00 | 46 | 1011.6 |
| 20260503230948 | 12 | 241 | 4.8 | 8.0 | 0.00 | 0.00 | 0.00 | 45 | 1011.7 |
| 20260503230444 | 12 | 190 | 6.4 | 9.7 | 0.00 | 0.00 | 0.00 | 45 | 1011.6 |
| 20260503225942 | 12 | 191 | 6.4 | 14.5 | 0.00 | 0.00 | 0.00 | 44 | 1011.7 |
| 20260503225439 | 13 | 230 | 9.7 | 14.5 | 0.00 | 0.00 | 0.00 | 43 | 1011.8 |
| 20260503224934 | 13 | 244 | 3.2 | 4.8 | 0.00 | 0.00 | 0.00 | 46 | 1011.8 |
| 20260503224431 | 13 | 150 | 0.0 | 8.0 | 0.00 | 0.00 | 0.00 | 45 | 1011.7 |
| 20260503223929 | 13 | 185 | 4.8 | 9.7 | 0.00 | 0.00 | 0.00 | 45 | 1011.8 |
| 20260503223427 | 13 | 200 | 4.8 | 8.0 | 0.00 | 0.00 | 0.00 | 45 | 1011.8 |
| 20260503222922 | 13 | 198 | 3.2 | 12.9 | 0.00 | 0.00 | 0.00 | 43 | 1011.7 |
| 20260503222421 | 13 | 173 | 1.6 | 9.7 | 0.00 | 0.00 | 0.00 | 43 | 1011.7 |
| 20260503221919 | 13 | 169 | 3.2 | 12.9 | 0.00 | 0.00 | 0.00 | 42 | 1011.8 |
| 20260503221417 | 13 | 289 | 3.2 | 8.0 | 0.00 | 0.00 | 0.00 | 45 | 1011.8 |
| 20260503220913 | 13 | 182 | 4.8 | 8.0 | 0.00 | 0.00 | 0.00 | 44 | 1011.6 |
| 20260503220410 | 14 | 156 | 1.6 | 9.7 | 0.00 | 0.00 | 0.00 | 42 | 1011.6 |
| 20260503215907 | 13 | 199 | 6.4 | 9.7 | 0.00 | 0.00 | 0.00 | 41 | 1011.5 |
| 20260503215404 | 13 | 222 | 6.4 | 9.7 | 0.00 | 0.00 | 0.00 | 42 | 1011.6 |
| 20260503214901 | 14 | 220 | 4.8 | 8.0 | 0.00 | 0.00 | 0.00 | 42 | 1011.7 |
| 20260503214359 | 14 | 235 | 6.4 | 12.9 | 0.00 | 0.00 | 0.00 | 40 | 1011.4 |
| 20260503213856 | 13 | 214 | 1.6 | 8.0 | 0.00 | 0.00 | 0.00 | 43 | 1011.6 |
| 20260503213354 | 14 | 320 | 8.0 | 14.5 | 0.00 | 0.00 | 0.00 | 40 | 1011.7 |
| 20260503212850 | 13 | 206 | 3.2 | 4.8 | 0.00 | 0.00 | 0.00 | 43 | 1011.4 |
| 20260503212348 | 14 | 326 | 3.2 | 8.0 | 0.00 | 0.00 | 0.00 | 42 | 1011.5 |
| 20260503211845 | 14 | 215 | 6.4 | 9.7 | 0.00 | 0.00 | 0.00 | 41 | 1011.3 |
| 20260503211342 | 13 | 202 | 3.2 | 8.0 | 0.00 | 0.00 | 0.00 | 42 | 1011.4 |
| 20260503210837 | 13 | 207 | 6.4 | 14.5 | 0.00 | 0.00 | 0.00 | 40 | 1011.4 |
| 20260503210334 | 14 | 219 | 3.2 | 4.8 | 0.00 | 0.00 | 0.00 | 40 | 1011.5 |
| 20260503205829 | 15 | 206 | 9.7 | 22.5 | 0.00 | 0.00 | 0.00 | 39 | 1011.4 |
| 20260503205326 | 14 | 139 | 4.8 | 12.9 | 0.00 | 0.00 | 0.00 | 42 | 1011.4 |
| 20260503204822 | 13 | 203 | 3.2 | 4.8 | 0.00 | 0.00 | 0.00 | 42 | 1011.6 |
| 20260503204320 | 14 | 302 | 3.2 | 9.7 | 0.00 | 0.00 | 0.00 | 41 | 1011.5 |
| 20260503203817 | 13 | 291 | 6.4 | 12.9 | 0.00 | 0.00 | 0.00 | 43 | 1011.6 |
| 20260503203315 | 13 | 208 | 3.2 | 9.7 | 0.00 | 0.00 | 0.00 | 44 | 1011.8 |
| 20260503202811 | 13 | 245 | 3.2 | 8.0 | 0.00 | 0.00 | 0.00 | 45 | 1011.9 |
| 20260503202309 | 14 | 214 | 6.4 | 8.0 | 0.00 | 0.00 | 0.00 | 44 | 1011.9 |
| 20260503201807 | 13 | 204 | 9.7 | 12.9 | 0.00 | 0.00 | 0.00 | 45 | 1012.1 |
| 20260503201304 | 14 | 210 | 3.2 | 9.7 | 0.00 | 0.00 | 0.00 | 44 | 1012.1 |
| 20260503200801 | 15 | 162 | 3.2 | 4.8 | 0.00 | 0.00 | 0.00 | 39 | 1012.3 |
| 20260503200257 | 15 | 197 | 4.8 | 9.7 | 0.00 | 0.00 | 0.00 | 41 | 1012.4 |
| 20260503195755 | 14 | 200 | 3.2 | 9.7 | 0.00 | 0.00 | 0.00 | 41 | 1012.5 |
| 20260503195251 | 14 | 229 | 3.2 | 8.0 | 0.00 | 0.00 | 0.00 | 44 | 1012.4 |
| 20260503194749 | 15 | 205 | 3.2 | 8.0 | 0.00 | 0.00 | 0.00 | 43 | 1012.6 |
| 20260503194244 | 15 | 202 | 3.2 | 9.7 | 0.00 | 0.00 | 0.00 | 44 | 1012.6 |
| 20260503193741 | 14 | 194 | 6.4 | 8.0 | 0.00 | 0.00 | 0.00 | 43 | 1012.6 |
| 20260503193237 | 15 | 242 | 4.8 | 14.5 | 0.00 | 0.00 | 0.00 | 39 | 1012.6 |
| 20260503192732 | 13 | 222 | 4.8 | 12.9 | 0.00 | 0.00 | 0.00 | 42 | 1012.8 |
| 20260503192228 | 13 | 247 | 4.8 | 8.0 | 0.00 | 0.00 | 0.00 | 45 | 1012.8 |
| 20260503191725 | 13 | 200 | 4.8 | 17.7 | 0.00 | 0.00 | 0.00 | 42 | 1012.9 |
| 20260503191222 | 13 | 201 | 6.4 | 14.5 | 0.00 | 0.00 | 0.00 | 43 | 1013.0 |
| 20260503190719 | 13 | 312 | 3.2 | 12.9 | 0.00 | 0.00 | 0.00 | 43 | 1013.0 |
| 20260503190215 | 14 | 241 | 3.2 | 8.0 | 0.00 | 0.00 | 0.00 | 44 | 1013.0 |
| 20260503185713 | 14 | 235 | 9.7 | 17.7 | 0.00 | 0.00 | 0.00 | 41 | 1013.1 |
| 20260503185208 | 13 | 203 | 6.4 | 14.5 | 0.00 | 0.00 | 0.00 | 43 | 1013.2 |
| 20260503184703 | 13 | 209 | 6.4 | 8.0 | 0.00 | 0.00 | 0.00 | 43 | 1013.3 |
| 20260503184200 | 13 | 341 | 11.3 | 14.5 | 0.00 | 0.00 | 0.00 | 43 | 1013.5 |
| 20260503183656 | 13 | 213 | 3.2 | 17.7 | 0.00 | 0.00 | 0.00 | 44 | 1013.4 |
| 20260503183153 | 13 | 231 | 9.7 | 14.5 | 0.00 | 0.00 | 0.00 | 44 | 1013.4 |
| 20260503182651 | 12 | 215 | 11.3 | 17.7 | 0.00 | 0.00 | 0.00 | 45 | 1013.5 |
| 20260503182150 | 12 | 232 | 3.2 | 8.0 | 0.00 | 0.00 | 0.00 | 45 | 1013.4 |
| 20260503181646 | 12 | 218 | 3.2 | 9.7 | 0.00 | 0.00 | 0.00 | 45 | 1013.7 |
| 20260503181143 | 13 | 261 | 4.8 | 8.0 | 0.00 | 0.00 | 0.00 | 46 | 1013.6 |
| 20260503180640 | 12 | 159 | 3.2 | 8.0 | 0.00 | 0.00 | 0.00 | 45 | 1013.6 |
| 20260503180138 | 13 | 173 | 6.4 | 9.7 | 0.00 | 0.00 | 0.00 | 42 | 1013.8 |
| 20260503175634 | 12 | 188 | 4.8 | 14.5 | 0.00 | 0.00 | 0.00 | 43 | 1013.8 |
| 20260503175132 | 12 | 53 | 11.3 | 17.7 | 0.00 | 0.00 | 0.00 | 43 | 1013.7 |
| 20260503174628 | 12 | 206 | 6.4 | 9.7 | 0.00 | 0.00 | 0.00 | 45 | 1013.9 |
| 20260503174125 | 12 | 222 | 9.7 | 17.7 | 0.00 | 0.00 | 0.00 | 46 | 1013.9 |
| 20260503173620 | 12 | 221 | 8.0 | 12.9 | 0.00 | 0.00 | 0.00 | 44 | 1013.9 |
| 20260503173117 | 12 | 268 | 3.2 | 12.9 | 0.00 | 0.00 | 0.00 | 44 | 1014.0 |
| 20260503172614 | 13 | 219 | 9.7 | 17.7 | 0.00 | 0.00 | 0.00 | 44 | 1014.0 |
| 20260503172111 | 13 | 277 | 4.8 | 14.5 | 0.00 | 0.00 | 0.00 | 44 | 1014.0 |
| 20260503171608 | 12 | 233 | 6.4 | 9.7 | 0.00 | 0.00 | 0.00 | 44 | 1014.1 |
| 20260503171105 | 13 | 202 | 9.7 | 14.5 | 0.00 | 0.00 | 0.00 | 40 | 1014.2 |
| 20260503170556 | 12 | 200 | 4.8 | 9.7 | 0.00 | 0.00 | 0.00 | 41 | 1014.3 |